Terminal Aerodrome Forecast
Issued by NWS

Home | Current Version | Previous Version | Text Only | Print | Product List | Glossary On
Versions: 1 2 3 4 5 6 7 8 9 10 11 12 13 14 15 16 17
000
FTUS43 KIND 101130
TAFBMG
TAF
KBMG 101130Z 1012/1112 00000KT P6SM OVC024
     FM101500 25004KT P6SM SCT140
     FM101800 24005KT P6SM BKN100
     FM102200 18004KT P6SM BKN100
     FM111100 15008KT P6SM OVC060
      AMD LTD TO CLD VIS AND WIND TIL 101400=

USA.gov is the U.S. government's official web portal to all federal, state and local government web resources and services.